Location: Livorno
(43.5500°N, 10.3170°E)
Time: 00:57:20
(UTC+02:00)

ISS - Pass Details

Date: 23 May 2026
Orbit: 413 x 422 km, 51.6° (Epoch: 7 June)

Event Time Altitude Azimuth Distance (km) Brightness Sun altitude
Rises 21:51:04 0° 302° (WNW) 2,351 2.0 -10.5°
Reaches altitude 10° 21:53:10 10° 304° (WNW) 1,486 0.6 -10.8°
Maximum altitude 21:56:30 82° 31° (NNE) 422 -3.8 -11.2°
Enters shadow 21:58:49 18° 119° (ESE) 1,076 -2.3 -11.5°
